Temp
57 58 59 58 58 59 58 57 58 57 58 58 59 59 60 60 61 62 62 60 60 60 60 62 63 65 67 68 69 70 72 73 73 75 75 76 75 75 75 75 76 76 76
58 58 57 58 58 57 55 55 55 55 54 56 58 60 59 60 61 61 62 62 60 60 60 61 61 64 66 67 67 69 71 72 73 74 74 76 75 75 75 75 75 76 76
57 57 57 56 55 56 54 53 55 54 52 55 57 59 60 60 60 60 61 62 62 60 60 60 60 62 64 66 67 69 70 71 72 73 74 75 74 72 73 75 75 75 76
57 57 56 55 53 51 51 50 51 51 49 51 56 58 59 60 60 60 60 60 59 60 61 60 60 60 62 65 66 68 69 70 72 73 74 74 73 72 71 72 74 75 75
56 56 56 56 54 52 51 51 52 50 48 50 53 55 55 57 57 60 59 57 57 58 60 59 59 59 61 63 65 66 68 69 71 72 73 73 72 72 71 71 72 74 74
56 56 56 54 54 53 53 52 50 52 51 49 49 47 50 55 57 57 56 57 57 56 58 60 60 62 61 62 64 66 68 70 71 71 71 70 70 70 70 70 71 73 73
55 55 55 55 52 52 50 50 50 48 48 50 46 45 49 59 59 56 56 54 50 54 57 60 60 61 64 63 64 66 68 70 70 69 69 69 68 67 66 67 66 67 72
55 55 54 54 53 51 51 50 49 47 48 47 42 41 40 49 55 55 56 50 48 51 55 62 62 63 64 66 67 66 65 67 69 70 70 69 67 66 65 65 64 64 66
54 54 54 54 54 53 48 48 48 47 44 50 49 42 36 35 39 52 52 49 45 48 54 56 60 64 66 68 68 65 64 65 64 66 68 68 68 67 65 64 65 63 63
55 54 54 54 54 54 51 50 52 47 46 43 45 49 47 42 37 36 50 47 45 46 49 57 60 64 67 68 65 64 62 63 62 65 69 69 69 69 67 65 65 64 64
54 54 54 54 53 53 53 51 50 49 48 45 45 46 41 43 44 38 36 43 44 44 47 57 58 58 63 64 67 64 62 62 60 61 65 68 68 68 68 68 65 64 64
54 54 53 53 53 53 53 52 51 50 49 49 47 46 45 38 40 38 38 42 39 41 44 56 58 57 59 59 61 61 64 65 65 65 65 66 66 67 67 67 68 67 63
52 52 52 52 53 52 52 53 52 51 51 48 47 46 46 46 46 42 42 42 39 40 43 48 57 57 56 56 57 60 62 64 64 64 64 64 64 65 65 65 66 68 69
53 53 52 53 53 53 53 53 52 52 51 50 48 49 49 46 45 42 42 40 38 39 40 39 48 54 55 56 56 58 63 62 63 63 63 63 63 63 64 64 65 66 68
53 53 52 52 53 53 53 53 51 51 51 51 50 47 46 43 42 44 44 47 41 36 37 40 40 47 51 52 51 57 57 59 59 60 61 61 62 62 63 63 63 64 65
53 52 52 52 52 53 53 53 52 52 51 51 50 48 47 46 42 45 47 47 48 41 37 45 43 46 50 53 53 56 55 56 58 58 58 58 59 61 61 62 62 62 62
53 52 52 51 52 52 49 51 52 51 50 49 50 49 48 48 47 43 45 48 46 46 41 46 47 49 48 49 51 52 55 58 59 57 57 57 57 58 59 60 61 61 61
53 53 52 51 51 52 51 48 50 51 50 48 48 48 48 48 48 48 45 42 44 48 46 42 47 47 46 49 51 50 52 56 56 54 54 55 55 55 56 57 59 60 60
53 53 52 51 50 51 51 47 50 51 50 49 49 48 48 47 44 50 48 47 45 46 47 43 44 47 48 50 49 51 52 52 56 54 54 54 54 53 54 55 55 58 58
52 52 52 51 50 51 52 48 50 51 50 50 49 49 49 47 44 46 47 48 47 42 44 44 45 44 46 49 49 44 44 48 48 52 52 52 53 53 53 53 54 53 54
52 52 51 51 50 51 53 49 50 51 49 49 49 50 50 48 48 48 47 46 47 41 43 43 42 42 40 40 39 40 39 43 45 43 47 50 52 55 57 56 55 52 52
51 51 50 49 49 51 48 50 50 51 50 48 48 49 50 49 49 46 47 47 46 43 43 43 40 38 40 37 38 37 37 38 35 45 43 43 50 50 54 55 50 50 50
50 50 49 49 48 50 48 49 50 51 49 49 48 48 48 51 49 46 45 47 46 46 45 44 41 41 36 35 36 33 33 34 36 37 41 37 45 44 51 54 50 49 50
49 48 48 48 47 49 47 48 49 52 51 50 48 47 47 48 48 46 46 46 44 45 46 44 42 42 41 35 38 39 35 34 37 41 45 36 42 40 46 51 50 49 48
49 49 48 48 47 48 48 47 49 52 50 49 49 48 47 48 49 48 46 44 44 44 46 42 42 43 43 43 42 42 37 37 35 37 42 40 41 41 44 46 50 46 46
48 48 47 49 47 47 48 47 49 52 49 49 49 49 46 46 48 47 45 44 36 35 43 43 42 43 44 43 40 43 42 36 35 35 40 38 38 39 37 46 45 49 50
MSLP
1025.47 1025.08 1024.64 1024.24 1023.85 1023.39 1023.04 1022.53 1022.05 1021.56 1020.99 1020.57 1019.98 1019.34 1018.81 1018.34 1017.87 1017.43 1016.91 1016.54 1016.39 1016.13 1015.81 1015.41 1014.84 1014.14 1013.65 1013.24 1012.88 1012.40 1012.03 1011.79 1011.48 1011.18 1011.12 1011.07 1011.01 1011.24 1011.38 1011.50 1011.70 1012.16 1012.59
1025.58 1025.14 1024.62 1024.16 1023.76 1023.67 1023.54 1022.98 1022.31 1021.75 1021.30 1020.75 1019.87 1019.12 1018.65 1018.08 1017.53 1017.10 1016.57 1016.04 1015.71 1015.56 1015.25 1014.85 1014.53 1013.86 1013.26 1012.81 1012.52 1011.99 1011.49 1011.14 1010.89 1010.65 1010.51 1010.44 1010.55 1010.47 1010.68 1011.00 1011.18 1011.56 1012.07
1025.77 1025.26 1024.67 1024.53 1024.51 1023.88 1023.70 1023.12 1022.40 1022.23 1021.75 1020.74 1019.63 1018.85 1018.27 1017.68 1017.24 1016.87 1016.23 1015.61 1015.08 1014.72 1014.53 1014.38 1014.10 1013.65 1013.02 1012.44 1011.96 1011.51 1011.13 1010.74 1010.34 1010.02 1009.85 1009.75 1009.89 1009.89 1009.88 1010.26 1010.65 1010.94 1011.47
1025.90 1025.32 1024.88 1024.72 1024.65 1024.28 1023.71 1023.23 1022.58 1022.16 1021.73 1020.94 1019.49 1018.57 1017.84 1017.23 1016.72 1016.48 1016.08 1015.47 1015.29 1014.61 1013.95 1013.71 1013.54 1013.21 1012.66 1012.03 1011.49 1011.14 1010.76 1010.20 1009.63 1009.35 1009.10 1009.20 1009.28 1009.46 1009.51 1010.00 1010.20 1010.58 1010.95
1025.92 1025.39 1024.91 1024.39 1024.38 1023.95 1023.45 1022.86 1022.30 1022.01 1021.54 1020.88 1020.00 1019.11 1018.37 1017.34 1016.62 1015.91 1015.59 1015.26 1014.72 1014.33 1013.68 1013.11 1012.82 1012.53 1012.09 1011.55 1011.05 1010.80 1010.32 1009.64 1008.86 1008.65 1008.69 1008.71 1008.88 1009.06 1009.35 1009.82 1010.02 1010.33 1010.65
1025.90 1025.36 1024.78 1024.43 1024.12 1023.63 1023.21 1022.90 1022.51 1021.94 1021.39 1020.91 1020.16 1019.54 1018.58 1017.27 1016.27 1015.56 1015.38 1015.09 1014.48 1014.08 1013.34 1012.46 1012.11 1011.48 1011.19 1010.95 1010.53 1010.10 1009.49 1008.42 1008.02 1008.21 1008.47 1008.63 1008.90 1008.95 1009.18 1009.75 1009.91 1010.15 1010.39
1025.98 1025.42 1024.89 1024.40 1024.24 1023.71 1023.34 1022.91 1022.34 1021.87 1021.40 1020.77 1020.07 1019.24 1018.06 1016.18 1015.58 1015.71 1015.28 1015.16 1014.82 1013.78 1012.71 1011.67 1011.51 1010.96 1010.21 1009.93 1009.60 1009.23 1008.66 1007.84 1007.85 1008.20 1008.42 1008.76 1009.15 1009.18 1009.40 1009.67 1009.96 1010.22 1010.21
1026.10 1025.54 1024.95 1024.31 1024.02 1023.66 1023.15 1022.80 1022.31 1021.65 1021.17 1020.74 1020.31 1019.30 1017.78 1016.58 1015.73 1015.87 1015.12 1015.33 1015.07 1013.93 1012.12 1010.85 1010.62 1010.16 1009.66 1009.18 1008.57 1008.37 1008.15 1007.56 1007.90 1008.12 1008.29 1008.85 1009.23 1009.50 1009.46 1009.67 1009.87 1010.02 1010.34
1025.95 1025.59 1025.02 1024.44 1024.04 1023.63 1023.24 1022.83 1022.37 1021.77 1021.12 1020.21 1019.98 1019.70 1018.72 1017.81 1017.05 1015.63 1015.08 1015.24 1014.99 1013.86 1012.32 1011.41 1010.55 1009.53 1009.01 1008.37 1008.06 1007.81 1008.09 1007.93 1008.45 1008.52 1008.57 1008.66 1009.03 1009.31 1009.49 1009.82 1009.87 1010.08 1010.44
1025.89 1025.55 1025.06 1024.67 1024.18 1023.69 1023.23 1022.77 1021.98 1021.81 1021.33 1020.66 1020.24 1019.54 1019.17 1018.88 1017.86 1016.43 1015.47 1015.22 1014.88 1013.83 1012.62 1011.09 1010.20 1009.11 1008.44 1008.01 1007.77 1007.87 1008.34 1008.47 1008.90 1008.97 1008.59 1008.92 1009.17 1009.38 1009.77 1009.98 1010.36 1010.30 1010.41
1025.89 1025.55 1025.22 1024.83 1024.31 1023.72 1023.27 1022.74 1022.16 1021.68 1021.24 1020.87 1020.37 1019.55 1019.48 1018.65 1018.19 1017.72 1016.14 1015.02 1014.63 1014.16 1012.97 1011.30 1010.41 1009.73 1008.96 1008.37 1007.84 1008.12 1008.43 1008.89 1009.30 1009.60 1009.75 1009.83 1009.68 1009.94 1010.00 1009.83 1010.07 1010.17 1010.78
1025.63 1025.37 1025.22 1024.68 1024.11 1023.63 1023.13 1022.59 1022.18 1021.67 1021.29 1020.75 1020.14 1019.66 1019.07 1019.12 1018.09 1017.67 1016.78 1015.69 1015.47 1014.53 1013.36 1011.78 1011.13 1010.60 1009.93 1009.43 1009.35 1009.05 1009.08 1008.97 1009.16 1009.96 1009.86 1010.78 1010.33 1010.15 1010.04 1010.13 1009.95 1010.41 1010.79
1025.38 1025.19 1025.04 1024.53 1023.97 1023.66 1023.09 1022.54 1022.04 1021.63 1021.27 1020.84 1020.27 1019.74 1019.35 1018.59 1018.10 1017.81 1016.91 1016.02 1015.52 1014.88 1013.97 1013.10 1011.79 1011.40 1011.09 1010.63 1010.20 1009.67 1009.34 1009.21 1009.48 1009.82 1010.25 1010.60 1010.45 1010.43 1010.61 1010.59 1010.67 1010.78 1010.61
1025.39 1025.17 1024.97 1024.48 1024.01 1023.51 1022.99 1022.49 1021.94 1021.49 1021.04 1020.58 1020.13 1019.67 1019.02 1018.68 1018.35 1018.01 1017.13 1016.47 1015.65 1015.25 1014.75 1014.48 1013.35 1012.50 1012.18 1011.88 1011.52 1010.61 1009.71 1009.75 1009.75 1010.21 1009.92 1010.23 1010.49 1010.70 1010.80 1010.75 1010.47 1010.26 1009.91
1025.38 1025.19 1024.91 1024.41 1023.77 1023.22 1022.67 1022.28 1021.86 1021.37 1020.97 1020.45 1020.06 1019.78 1019.24 1019.07 1018.48 1017.92 1017.10 1016.25 1016.13 1015.49 1014.94 1014.78 1014.33 1013.91 1013.00 1012.45 1012.24 1011.73 1011.27 1010.75 1010.75 1010.44 1010.54 1010.77 1010.89 1011.00 1011.05 1011.05 1010.75 1010.59 1010.67
1025.20 1024.86 1024.50 1024.20 1023.73 1023.09 1022.53 1022.08 1021.70 1021.21 1020.81 1020.37 1020.01 1019.58 1019.01 1018.68 1018.36 1017.60 1017.04 1016.39 1015.86 1015.75 1015.22 1014.83 1014.81 1014.44 1013.81 1013.25 1012.94 1012.12 1011.92 1011.98 1011.65 1011.51 1011.39 1011.39 1011.38 1011.37 1011.29 1011.31 1011.19 1010.95 1010.83
1024.71 1024.46 1024.15 1023.89 1023.47 1022.99 1022.96 1022.10 1021.54 1021.03 1020.66 1020.29 1019.89 1019.50 1018.87 1018.37 1017.79 1017.64 1017.13 1016.26 1015.83 1015.63 1015.30 1014.83 1014.76 1014.56 1014.30 1013.83 1013.42 1013.10 1012.85 1012.44 1012.06 1012.25 1012.20 1012.08 1012.05 1011.95 1011.78 1011.54 1011.43 1011.35 1011.33
1024.27 1024.04 1023.80 1023.49 1023.11 1022.73 1022.52 1022.18 1021.42 1020.93 1020.56 1020.15 1019.84 1019.36 1018.71 1018.37 1017.62 1017.33 1017.02 1016.75 1016.04 1015.44 1015.29 1015.05 1014.74 1014.70 1014.63 1014.38 1013.99 1013.83 1013.60 1013.18 1012.84 1013.00 1012.78 1012.60 1012.50 1012.43 1012.33 1012.07 1011.88 1011.89 1011.99
1023.99 1023.65 1023.38 1023.19 1022.86 1022.50 1022.06 1021.92 1021.30 1020.83 1020.53 1020.22 1019.89 1019.47 1018.90 1018.43 1018.06 1017.01 1016.69 1016.44 1016.14 1015.76 1015.24 1015.29 1014.88 1014.80 1014.59 1014.51 1014.28 1014.06 1013.87 1013.71 1013.09 1013.28 1013.16 1013.05 1012.96 1012.94 1012.69 1012.55 1012.39 1012.31 1012.42
1023.97 1023.65 1023.38 1023.13 1022.79 1022.38 1021.84 1021.62 1021.20 1020.69 1020.31 1020.00 1019.82 1019.44 1019.06 1018.70 1018.12 1017.46 1016.91 1016.47 1016.28 1016.21 1015.62 1015.22 1014.99 1015.04 1015.00 1014.80 1014.61 1014.86 1014.63 1014.54 1014.18 1013.97 1013.77 1013.58 1013.32 1013.18 1012.97 1012.83 1012.73 1012.80 1012.83
1023.94 1023.62 1023.36 1023.01 1022.70 1022.30 1021.76 1021.46 1020.93 1020.43 1020.14 1019.88 1019.49 1019.18 1018.90 1018.71 1018.19 1017.71 1017.28 1016.86 1016.46 1016.50 1016.06 1015.62 1015.60 1015.45 1015.63 1015.63 1015.66 1015.75 1015.49 1015.04 1014.67 1014.97 1014.39 1013.93 1013.55 1013.02 1012.75 1012.74 1012.72 1013.07 1013.16
1023.79 1023.51 1023.25 1023.01 1022.64 1022.23 1022.07 1021.37 1020.85 1020.30 1020.02 1019.70 1019.38 1019.07 1018.72 1018.40 1018.13 1018.03 1017.73 1017.34 1017.09 1016.71 1016.19 1015.86 1016.03 1016.01 1015.96 1016.21 1016.21 1016.16 1016.03 1015.67 1015.37 1015.07 1014.88 1014.40 1013.87 1013.40 1013.00 1012.87 1013.35 1013.41 1013.22
1023.62 1023.38 1023.12 1022.87 1022.57 1022.17 1021.92 1021.34 1020.82 1020.19 1019.98 1019.56 1019.36 1018.97 1018.69 1018.24 1018.02 1017.97 1017.88 1017.45 1017.25 1017.08 1016.95 1016.57 1016.22 1016.12 1016.27 1016.46 1016.52 1016.34 1016.34 1016.27 1016.00 1015.72 1015.11 1014.61 1014.26 1013.96 1013.36 1013.03 1013.36 1013.46 1013.32
1023.33 1023.16 1022.96 1022.74 1022.48 1021.93 1021.73 1021.25 1020.72 1019.93 1019.71 1019.48 1019.28 1019.16 1018.86 1018.35 1017.98 1017.87 1017.76 1017.25 1017.29 1017.07 1016.93 1016.88 1016.73 1016.55 1016.29 1016.33 1016.31 1016.32 1016.38 1016.33 1015.89 1015.43 1014.92 1014.81 1014.63 1014.31 1013.92 1013.31 1013.17 1013.35 1013.42
1023.06 1022.92 1022.74 1022.46 1022.16 1021.78 1021.40 1021.01 1020.51 1019.70 1019.42 1019.17 1019.15 1019.09 1018.99 1018.43 1017.94 1017.63 1017.51 1017.31 1017.16 1016.94 1016.87 1017.16 1017.01 1016.75 1016.54 1016.36 1016.16 1016.11 1016.08 1015.99 1015.58 1015.23 1015.12 1014.77 1014.46 1014.09 1013.65 1013.34 1013.04 1013.43 1013.34
1022.73 1022.57 1022.34 1022.12 1021.96 1021.64 1021.22 1020.89 1020.39 1019.64 1019.28 1019.05 1018.95 1018.97 1018.91 1018.68 1018.05 1017.74 1017.38 1017.21 1017.18 1017.30 1016.87 1016.81 1016.74 1016.50 1016.35 1016.31 1016.55 1016.09 1015.97 1016.05 1016.01 1015.52 1015.25 1015.14 1014.79 1014.60 1013.80 1013.27 1013.31 1013.11 1012.94
Wind_Speed
8 9 9 8 8 9 10 10 10 10 11 13 12 13 13 13 13 9 9 20 21 21 22 23 24 24 25 24 23 26 23 25 25 26 25 19 17 21 22 22 22 20 20
9 9 9 9 9 9 10 10 10 10 10 12 13 12 13 13 13 14 11 13 21 21 22 22 23 24 25 24 24 25 25 24 25 25 23 19 18 22 25 23 21 20 21
10 11 8 10 10 9 11 10 11 10 11 12 14 11 11 12 12 15 14 12 14 21 21 21 22 24 26 25 24 24 25 26 26 25 23 19 16 13 27 22 22 21 20
11 9 8 8 9 8 8 7 8 8 9 10 11 11 11 12 13 13 14 12 11 13 16 21 22 24 26 26 25 24 27 27 29 27 22 19 17 14 11 16 19 20 19
11 9 8 8 9 8 8 8 9 9 9 10 11 13 13 12 13 11 13 14 14 13 12 19 22 23 25 25 25 26 27 29 30 25 18 18 16 15 12 15 19 20 21
11 10 8 9 10 8 8 10 12 10 10 9 10 11 12 11 10 9 9 12 13 14 16 16 13 13 22 24 25 26 27 28 21 17 15 11 11 9 12 9 15 22 21
10 10 8 9 10 10 10 11 9 11 9 10 8 8 11 9 7 9 10 8 13 13 17 11 10 9 10 20 22 24 24 21 16 14 11 10 11 13 9 7 5 4 19
9 9 10 9 10 9 10 10 13 8 8 6 6 7 7 10 10 14 8 7 14 13 13 10 11 12 11 10 13 16 19 3 15 14 13 13 11 9 10 7 3 5 6
8 9 10 9 10 9 8 9 10 12 9 11 11 5 4 5 11 6 10 7 13 10 11 8 12 10 11 11 9 6 14 16 13 3 10 11 12 10 7 5 9 4 5
9 9 10 9 10 8 10 10 8 8 8 9 9 5 8 7 4 7 8 7 10 10 14 6 7 7 7 6 5 10 17 17 9 10 13 13 13 13 12 10 7 6 9
8 9 10 10 10 8 9 11 11 10 7 7 10 10 9 8 6 4 8 11 8 9 10 7 8 7 8 5 3 8 14 14 13 8 6 8 11 9 7 7 7 7 7
5 7 10 9 9 9 10 9 9 11 10 9 8 8 7 6 7 2 7 11 9 6 9 7 9 9 8 8 6 4 7 11 13 14 15 7 10 10 9 7 6 4 1
6 8 10 10 8 9 10 10 10 11 11 10 11 8 8 8 5 7 6 9 6 3 4 9 9 9 9 8 9 8 3 7 10 12 13 11 11 10 7 6 5 8 7
6 8 8 9 9 9 10 10 8 8 11 9 11 11 9 7 7 8 5 7 7 2 2 6 9 11 10 10 12 16 8 5 9 9 13 11 10 9 8 9 8 8 8
6 8 9 10 10 9 9 10 7 9 10 9 9 11 9 8 7 6 8 4 5 4 3 4 4 11 9 8 13 9 10 17 13 14 12 10 9 9 9 8 12 9 6
7 9 9 9 9 10 10 9 8 8 10 8 7 10 9 5 7 6 6 7 5 4 4 3 3 6 8 8 7 9 10 8 14 14 15 14 11 9 9 9 9 9 9
8 9 9 9 9 9 9 10 10 9 10 10 9 10 10 11 5 5 7 7 5 5 5 5 3 6 8 9 9 8 7 6 6 14 14 14 13 13 10 9 8 9 9
7 7 8 9 9 9 7 9 10 10 9 9 9 10 10 9 9 9 3 8 7 7 3 6 5 4 5 8 7 6 6 6 6 11 12 11 12 12 11 12 6 6 8
8 7 7 7 8 9 8 7 9 10 9 8 8 10 11 10 12 9 8 7 7 5 4 3 4 3 3 4 6 6 6 8 5 9 10 9 10 10 10 11 11 6 2
8 7 7 8 8 9 8 6 7 9 9 7 7 8 9 10 10 10 9 10 7 7 7 4 4 3 3 5 5 7 7 7 7 8 8 7 8 5 6 9 8 10 10
7 7 7 8 8 7 5 9 9 9 9 9 8 7 7 10 14 10 8 9 10 4 4 5 4 4 4 4 5 4 5 7 6 4 6 6 6 5 4 4 5 10 11
6 6 6 7 8 5 10 14 14 9 10 8 8 8 8 8 10 6 10 11 8 8 7 6 4 5 5 2 1 1 3 5 5 3 8 7 6 5 5 4 9 9 9
5 6 6 6 7 8 11 13 14 9 9 8 8 8 8 6 7 2 5 8 9 8 8 8 6 4 3 1 3 2 1 1 4 5 6 4 5 5 5 5 3 7 8
5 5 6 7 7 6 11 13 14 8 8 8 8 8 9 8 9 3 5 7 4 5 7 5 7 6 4 3 4 2 2 3 5 4 3 2 3 5 6 6 6 6 9
5 5 6 8 8 8 10 12 12 8 8 8 7 7 8 9 12 9 5 6 7 5 1 4 5 5 6 7 3 4 3 5 5 4 3 3 4 6 6 4 4 5 4
7 6 7 7 8 9 10 12 11 7 8 7 7 6 6 10 13 11 7 5 3 3 5 5 5 4 3 2 3 5 3 4 3 4 2 4 5 5 5 3 3 6 7
Wind_Direction
340 337 339 336 332 333 330 328 326 324 319 324 311 312 310 304 299 294 295 293 287 288 286 283 280 270 268 266 275 274 269 264 266 260 258 259 254 251 234 221 217 212 211
340 340 340 339 339 341 340 330 325 326 326 307 314 311 308 303 298 293 291 294 289 285 283 281 277 273 266 269 270 271 272 271 258 265 258 252 260 255 226 221 214 212 212
344 339 341 356 348 337 335 328 338 344 325 324 310 314 308 301 301 300 297 292 292 288 280 276 275 272 269 266 266 268 272 268 269 265 254 244 249 260 213 213 213 207 205
347 341 348 345 345 338 337 332 326 332 325 316 315 318 312 306 303 301 290 293 294 297 290 276 269 268 263 262 265 268 268 268 261 261 253 235 227 228 250 235 219 216 211
351 340 342 338 338 336 329 335 339 335 323 321 323 321 318 310 309 296 302 297 295 285 286 285 273 266 261 258 264 267 268 266 262 240 235 233 224 221 218 247 237 224 216
349 341 339 344 342 337 333 337 330 333 328 317 317 308 308 304 280 291 306 312 311 296 287 280 268 259 247 251 258 265 268 271 237 222 214 187 163 158 193 222 244 229 218
351 346 346 350 342 335 332 323 327 326 323 332 319 313 312 320 333 335 299 326 304 296 286 275 258 255 255 249 258 263 268 263 213 183 159 172 129 112 111 151 92 19 237
351 344 343 345 347 341 334 327 330 333 317 350 311 312 317 325 352 318 324 351 326 310 300 279 251 250 257 261 256 265 277 212 216 203 177 166 148 124 101 69 88 36 344
350 349 345 343 344 343 339 331 322 336 330 336 341 313 323 318 320 319 321 349 322 310 306 310 288 264 260 252 248 235 120 95 99 133 155 159 136 111 148 107 41 45 336
352 352 348 349 344 344 344 342 336 330 336 333 338 311 318 321 306 315 333 339 321 322 321 319 302 302 289 256 253 157 133 116 100 33 74 82 92 87 85 85 85 58 8
351 349 346 340 342 342 347 343 344 343 334 338 331 326 325 305 313 287 310 328 336 332 320 346 351 0 2 341 295 139 145 154 154 124 51 73 78 70 70 86 97 47 8
339 348 348 345 338 337 343 342 343 344 343 330 332 325 325 310 313 300 299 328 329 314 312 4 22 17 17 357 38 69 130 120 109 127 115 96 77 67 50 26 12 152 178
344 347 344 342 343 344 335 336 336 338 339 334 336 339 328 317 333 313 315 328 325 315 326 339 14 30 19 13 8 348 73 135 129 123 117 102 77 59 44 24 336 286 234
330 330 336 336 338 338 345 345 332 339 337 337 334 337 323 328 341 309 317 326 332 314 307 353 334 9 12 21 5 358 67 104 128 124 101 87 72 58 38 18 354 319 266
321 326 328 332 341 333 340 348 342 339 339 339 337 340 346 345 315 320 304 327 324 321 335 340 330 350 353 9 2 15 26 47 60 67 77 73 61 54 41 13 12 22 336
314 316 323 324 327 339 338 347 345 342 336 343 340 331 339 336 342 321 316 310 330 320 319 355 340 353 354 354 11 12 26 28 48 56 56 50 43 37 34 27 17 26 32
315 315 321 321 320 325 331 330 344 343 337 339 338 338 339 342 352 328 341 316 306 330 329 343 0 349 1 2 1 4 351 357 47 35 46 46 39 30 24 24 39 38 44
306 317 316 321 320 319 333 321 329 339 339 336 340 339 347 344 355 352 9 347 356 323 299 337 354 352 8 359 4 7 357 2 28 24 21 32 32 27 21 23 14 52 40
304 311 312 317 322 319 318 317 315 337 334 331 331 332 335 337 337 348 352 349 341 332 331 298 328 349 339 23 1 9 21 5 359 8 8 24 14 16 17 19 16 358 51
305 317 320 318 320 318 307 314 313 341 335 330 326 321 329 332 326 341 355 342 352 351 337 327 343 345 339 5 8 6 359 2 349 3 353 5 355 356 11 9 18 13 359
310 316 316 326 329 320 329 332 310 334 334 329 323 323 323 328 333 359 352 353 348 29 339 352 348 357 20 8 7 349 348 331 353 359 344 341 335 326 342 321 16 6 0
307 312 319 323 323 322 328 321 337 327 335 326 328 326 325 311 345 342 355 9 7 355 341 340 344 329 359 339 298 333 344 354 338 0 337 320 307 314 315 310 5 336 339
309 313 315 320 320 320 325 322 326 322 332 331 327 321 325 329 331 302 331 3 3 360 346 320 313 320 308 323 309 290 196 282 288 308 316 324 332 325 311 308 1 336 335
296 306 309 313 311 311 318 325 322 316 327 332 332 326 321 323 340 288 303 338 356 334 354 336 329 321 291 258 270 279 306 284 268 281 318 285 316 318 309 303 295 310 322
291 299 300 302 305 310 319 321 320 322 327 331 338 333 336 325 339 360 317 336 344 333 30 352 323 320 316 318 269 235 264 307 324 327 333 317 335 326 311 330 333 52 358
281 287 292 291 296 299 309 315 320 323 325 329 339 344 356 332 340 343 328 312 277 269 323 339 344 342 341 1 294 284 281 284 304 299 109 329 336 349 325 346 342 332 331